DateTimeUTC,F1_A11,F1_S11,BsB_S11,BsG_S11,BsR_S11,BbsB_S11,BbsG_S11,BbsR_S11,BaB_A11,BaG_A11,BaR_A11,Tu_S11,T_S11,Uu_S11,U_S11,P_S11,T1_A11
2021-08-10T11:00:00Z,00040200,20000000,,,,,,,0000.14,0000.01,-000.06,17.8,24.6,02.0,01.3,0673.7,30.9
2021-08-10T11:01:00Z,00040200,20000000,,,,,,,-000.13,-000.35,0000.16,17.8,24.6,02.0,01.3,0673.7,30.9
2021-08-10T11:02:00Z,00040200,20000000,,,,,,,-000.27,-000.00,-000.43,17.8,24.6,02.0,01.3,0673.7,30.9
2021-08-10T11:03:00Z,00040200,60000000,,,,,,,-000.06,-000.11,-000.06,17.8,24.6,02.0,01.3,0673.7,30.9
2021-08-10T11:04:00Z,00040200,41000000,0001.08,0000.60,0000.75,-000.05,0000.20,0000.20,0000.25,0000.03,0000.05,17.8,24.4,01.9,01.2,0674.7,30.9
2021-08-10T11:05:00Z,00040200,01000000,0001.44,0000.84,0000.74,0000.03,0000.28,0000.33,-000.12,0000.08,0000.20,17.9,24.3,01.9,01.3,0674.8,30.9
2021-08-10T11:06:00Z,00040200,01000000,0001.34,0000.61,0000.66,0000.11,0000.08,0000.22,0000.35,0000.12,0000.01,17.9,24.3,02.0,01.3,0674.8,30.9
2021-08-10T11:07:00Z,00040200,01000000,0001.08,0000.55,0000.36,0000.27,-000.08,0000.35,0000.00,0000.08,0000.27,17.9,24.3,02.0,01.3,0674.7,30.9
2021-08-10T11:08:00Z,00040200,00000000,0001.32,0000.94,0000.57,-000.14,0000.17,0000.06,-000.18,0000.24,-000.09,17.9,24.3,01.9,01.3,0674.8,30.9
2021-08-10T11:09:00Z,00040200,00000000,0001.00,0000.81,0000.71,0000.51,0000.58,0000.29,0000.37,0000.12,0000.53,17.9,24.3,02.0,01.3,0674.8,30.9
2021-08-10T11:10:00Z,00040200,01000000,0002.30,0001.04,0000.68,0000.25,0000.29,0000.25,0000.21,0000.28,0000.06,17.9,24.3,01.9,01.3,0674.8,30.9
2021-08-10T11:11:00Z,00040200,01000000,0001.79,0000.85,0000.49,0000.47,0000.09,0000.06,0000.01,0000.04,0000.09,17.8,24.3,02.0,01.3,0674.8,30.9
2021-08-10T11:12:00Z,00040200,00000000,0001.62,0001.14,0000.43,0000.38,0000.28,0000.22,0000.33,0000.23,0000.20,17.9,24.2,01.9,01.3,0674.8,30.9
2021-08-10T11:13:00Z,00040200,00000000,0001.88,0000.82,0000.46,0000.92,0000.03,0000.11,-000.09,0000.03,0000.13,17.8,24.2,02.0,01.3,0674.8,30.9
2021-08-10T11:14:00Z,00040200,00000000,0000.66,0001.02,0000.45,0000.34,0000.39,0000.23,0000.60,0000.08,0000.24,17.8,24.2,02.0,01.3,0674.8,30.9
2021-08-10T11:15:00Z,00040200,00000000,0000.92,0001.18,0000.58,0000.36,0000.22,0000.06,-000.15,0000.33,0000.34,17.8,24.2,02.0,01.4,0674.8,30.9
2021-08-10T11:16:00Z,00040200,00000000,0001.72,0001.05,0000.66,0000.35,0000.32,0000.38,0000.13,0000.16,-000.14,17.8,24.2,02.1,01.4,0674.8,30.9
2021-08-10T11:17:00Z,00040200,00000000,0001.28,0000.83,0000.41,0000.79,0000.26,0000.10,0000.39,0000.02,0000.06,17.8,24.2,02.1,01.4,0674.8,30.9
2021-08-10T11:18:00Z,00040200,01000000,0001.59,0000.82,0000.47,0000.28,0000.17,0000.33,0000.23,0000.45,0000.16,17.8,24.2,02.1,01.4,0674.8,30.9
2021-08-10T11:19:00Z,00040200,00000000,0001.30,0000.93,0000.69,0000.18,0000.43,0000.08,0000.12,-000.24,0000.25,17.8,24.2,02.0,01.3,0674.8,30.9
2021-08-10T11:20:00Z,00040200,00000000,0001.58,0000.77,0000.51,0000.54,0000.10,-000.04,0000.47,0000.70,0000.83,17.8,24.1,02.2,01.5,0674.8,30.9
2021-08-10T11:21:00Z,00040200,00000000,0002.04,0001.21,0000.42,0000.12,0000.15,0000.14,-000.06,0000.05,-000.44,17.8,24.1,02.2,01.5,0674.9,30.9
2021-08-10T11:22:00Z,00040200,00000000,0001.79,0001.30,0000.49,-000.01,0000.23,0000.11,0000.40,0000.34,0001.10,17.8,24.1,02.2,01.5,0674.9,30.9
2021-08-10T11:23:00Z,00040200,00000000,0001.69,0000.91,0000.44,0000.70,0000.57,0000.46,0000.23,0000.44,-000.11,17.9,24.2,02.2,01.5,0674.9,30.9
2021-08-10T11:24:00Z,00040200,00000000,0002.08,0001.25,0000.54,0000.59,0000.33,0000.21,0000.47,0000.15,0000.30,17.9,24.2,02.2,01.5,0674.9,30.9
2021-08-10T11:25:00Z,00040200,00000000,0001.63,0001.41,0000.74,0001.02,0000.01,0000.37,0000.09,0000.32,0000.21,18.0,24.3,02.2,01.5,0674.9,30.9
2021-08-10T11:26:00Z,00040200,00000000,0001.29,0001.37,0000.83,0000.16,0000.19,0000.36,-000.07,-000.16,-000.10,18.0,24.3,02.2,01.5,0674.9,30.9
2021-08-10T11:27:00Z,00040200,00000000,0002.18,0001.08,0000.50,0000.34,0000.28,0000.31,0000.09,0000.10,0000.26,18.1,24.3,02.2,01.5,0674.9,31.0
2021-08-10T11:28:00Z,00040200,00000000,0002.03,0000.86,0000.67,0000.39,0000.02,0000.14,0000.26,0000.34,0000.46,18.1,24.3,02.2,01.5,0674.9,31.0
2021-08-10T11:29:00Z,00040200,00000000,0001.59,0001.05,0000.80,0001.03,0000.37,0000.32,0000.15,0000.24,-000.15,18.1,24.3,02.1,01.4,0675.0,30.9
2021-08-10T11:30:00Z,00040200,00000000,0001.69,0001.45,0000.91,-000.03,0000.20,0000.51,0000.46,0000.04,0000.67,18.1,24.3,02.1,01.5,0675.0,31.0
2021-08-10T11:31:00Z,00040200,00000000,0001.81,0001.00,0000.61,-000.10,0000.14,0000.52,0000.46,0000.66,0000.04,18.1,24.3,02.1,01.5,0675.0,30.9
2021-08-10T11:32:00Z,00040200,00000000,0002.11,0001.18,0000.82,0000.71,0000.23,0000.24,0000.09,0000.10,-000.04,18.0,24.3,02.2,01.5,0675.0,30.9
2021-08-10T11:33:00Z,00040200,00000000,0001.56,0001.15,0000.89,0000.70,0000.41,0000.12,-000.04,0000.11,0000.47,18.0,24.3,02.2,01.5,0675.0,30.9
2021-08-10T11:34:00Z,00040200,00000000,0001.93,0000.88,0000.70,0000.04,0000.64,0000.46,0000.01,0000.13,-000.03,18.0,24.3,02.2,01.5,0675.0,30.9
2021-08-10T11:35:00Z,00040200,00000000,0001.25,0001.17,0000.72,0000.94,0000.46,0000.40,0000.12,0000.06,-000.07,18.0,24.3,02.1,01.5,0675.0,30.9
2021-08-10T11:36:00Z,00040200,00000000,0000.75,0000.85,0000.52,0000.42,0000.26,0000.19,0000.35,0000.36,0000.38,18.0,24.3,02.2,01.5,0675.0,30.9
2021-08-10T11:37:00Z,00040200,00000000,0001.06,0001.49,0000.94,0000.95,-000.02,0000.55,0000.32,0000.18,0000.15,18.1,24.3,02.2,01.5,0675.0,30.9
2021-08-10T11:38:00Z,00040200,00000000,0001.36,0000.82,0000.58,-000.80,0000.11,0000.27,0000.27,0000.28,0000.47,18.1,24.3,02.2,01.5,0675.1,30.9
2021-08-10T11:39:00Z,00040200,00000000,0001.54,0001.33,0000.49,0000.65,0000.09,0000.36,0000.22,0000.60,0000.25,18.1,24.3,02.2,01.5,0675.1,31.0
2021-08-10T11:40:00Z,00040200,00000000,0001.00,0001.01,0000.99,0000.50,0000.21,0000.51,0000.19,0000.02,0000.23,18.1,24.3,02.3,01.6,0675.1,30.9
2021-08-10T11:41:00Z,00040200,00000000,0001.68,0001.36,0001.01,-000.07,0000.06,0000.55,0000.40,0000.16,0000.43,18.1,24.3,02.3,01.6,0675.1,30.9
2021-08-10T11:42:00Z,00040200,00000000,0001.27,0001.28,0000.86,-000.03,0000.47,0000.54,0000.41,0000.50,0000.10,18.1,24.3,02.3,01.6,0675.1,30.9
2021-08-10T11:43:00Z,00040200,00000000,0000.88,0001.03,0000.46,-000.04,0000.28,0000.37,0000.04,0000.49,0000.53,18.1,24.3,02.4,01.7,0675.1,30.9
2021-08-10T11:44:00Z,00040200,00000000,0001.70,0001.22,0000.75,-000.19,0000.19,0000.21,0000.46,0000.24,0000.33,18.1,24.3,02.5,01.7,0675.1,30.9
2021-08-10T11:45:00Z,00040200,00000000,0001.70,0001.17,0000.56,0000.67,0000.13,0000.01,0000.43,-000.02,0000.15,18.1,24.3,02.5,01.7,0675.1,30.9
2021-08-10T11:46:00Z,00040200,00000000,0001.84,0000.99,0000.67,0000.03,0000.23,0000.40,-000.01,0000.45,-000.02,18.1,24.3,02.6,01.8,0675.1,30.9
2021-08-10T11:47:00Z,00040200,00000000,0001.78,0001.00,0000.76,0001.02,0000.23,0000.04,0000.35,0000.40,0000.76,18.1,24.3,02.6,01.8,0675.1,30.9
2021-08-10T11:48:00Z,00040200,00000000,0001.45,0000.67,0000.50,0000.64,0000.22,0000.44,0000.15,-000.29,-000.12,18.1,24.3,02.5,01.7,0675.1,30.9
2021-08-10T11:49:00Z,00040200,00000000,0001.43,0001.31,0000.64,0000.01,0000.17,0000.26,0000.40,0000.61,0000.28,18.1,24.3,02.7,01.8,0675.1,30.9
2021-08-10T11:50:00Z,00040200,00000000,0001.82,0000.72,0000.49,0000.54,0000.11,-000.01,0000.01,0000.01,0000.04,18.0,24.3,02.6,01.8,0675.1,30.9
2021-08-10T11:51:00Z,00040200,00000000,0001.74,0000.84,0000.78,0000.66,0000.10,0000.34,0000.12,0000.14,0000.26,18.0,24.3,02.5,01.7,0675.1,30.9
2021-08-10T11:52:00Z,00040200,00000000,0001.96,0000.86,0000.70,0000.38,0000.55,0000.11,0000.05,-000.11,0000.26,18.1,24.3,02.6,01.8,0675.1,30.9
2021-08-10T11:53:00Z,00040200,00000000,0001.31,0000.93,0000.58,0000.85,0000.19,0000.27,0000.23,0000.45,-000.10,18.1,24.3,02.6,01.8,0675.1,31.0
2021-08-10T11:54:00Z,00040200,00000000,0002.01,0001.14,0000.64,0000.47,0000.43,0000.46,0000.25,0000.44,0000.70,18.1,24.3,02.6,01.8,0675.1,30.9
2021-08-10T11:55:00Z,00040200,00000000,0000.97,0000.88,0000.63,0000.24,0000.31,0000.19,0000.11,-000.46,-000.27,18.1,24.3,02.6,01.8,0675.1,30.9
2021-08-10T11:56:00Z,00040200,00000000,0001.71,0000.98,0000.41,0000.60,0000.20,0000.24,0000.34,0000.39,0000.23,18.1,24.3,02.5,01.7,0675.1,30.9
2021-08-10T11:57:00Z,00040200,40000000,,,,,,,-000.51,-000.32,-000.13,18.1,24.4,02.5,01.7,0675.1,31.0
2021-08-10T11:58:00Z,00040200,60000000,,,,,,,-000.05,-000.20,-000.32,17.8,24.5,02.5,01.7,0674.1,31.0
2021-08-10T11:59:00Z,00040200,20000000,,,,,,,0000.27,0000.53,0000.40,17.8,24.6,02.4,01.6,0674.1,31.0
